Lambert St Louis International Airport
KSTL : now visible

Airfield :











YOU CAN JOIN US ON...

 
LOGIN :

Register | Disclaimer

   EN    FR    IT 

 









Legend :    VFR   Marginal VFR   IFR   Intensive IFR   Very Intensive IFR
Visi :
Ceiling :
>= 8 km
>= 3000ft
5 to 8 km
1000 to 3000 ft
1500m to 5 km
500 to 1000 ft
800 to 1500m
200 to 500 ft
< 800m
< 200 ft
Symbols :   Thunderstorms  Fog  Heavy snow  Heavy precipitations  Wind > 20 kt







- Airport Elevation : 618 ft
- IATA code : STL


KSTL - Lambert St Louis International

CURRENT METAR :
  • 181951Z 23009KT 10SM FEW060 FEW150 FEW250 35/23 A2989 RMK AO2 SLP107 T03500233

EXPIRED METARs :
  • 181851Z 26012G17KT 10SM FEW055 FEW120 FEW250 35/23 A2991 RMK AO2 SLP115 T03500233
  • 181751Z 26008KT 10SM FEW050 FEW120 FEW250 34/23 A2993 RMK AO2 SLP121 ACC W T03390233 10344 20250 56004

TAF KSTL
Valid from the 18 at 18:00 until the 20 at 00:00 UTC


181728Z 1818/1924 24012G21KT P6SM FEW040
FM190000 20008KT P6SM FEW250
FM191300 23010KT P6SM SKC
KZKC FIR / North America



MET'MAP, your aeronautical weather chart ! - Copyright ORBIFLY December 2007 - Disclaimer

ORBIFLY MET'MAP TEAM :

Programming & Development : Alexandra Zaïnal
Concept & Development : Baudouin d'Aumeries
Co-Development & Prog : Marc-Olivier Méhu
Technical & hardware support : Manuel Goepfert

Contact : metmap@orbifly.com




SOURCES & CREDITS :

   NOAA       Earth
Advisory